Date String (YYYY-MM-DD hh:mm:ss) UTC,Instrument flags,Ambient pressure (hPa),Sample flow (lpm),Bypass flow (lpm),Sample temperature (°C),Ambient temperature (°C),ASC tube jacket temperature (°C),LED temperature (°C),Box temperature (°C),Sample RH (%),Span deviation,Mass concentration (μg/m³),Mass concentration (μg/m³),Mass concentration (μg/m³)
DateTimeUTC,F1_M11,P_M11,Q1_M11,Q2_M11,T1_M11,T2_M11,T3_M11,T4_M11,T5_M11,U1_M11,ZSPAN_M11,X2_M11,X0_M11,X1_M11
2023-04-03 22:00:00,,0813.2,5.00,0.00,24.8,23.3,00.0,33.1,26.5,15.0,0000.0,0005.39,0125.61,0003.23
2023-04-03 22:05:00,,0813.0,4.99,0.00,24.9,23.4,00.0,33.1,26.5,15.1,0000.0,0005.53,0063.11,0004.06
2023-04-03 22:06:00,,0812.9,5.00,0.00,24.9,23.4,00.0,33.1,26.5,15.1,0000.0,0005.17,0016.98,0004.05
2023-04-03 22:07:00,,0812.9,5.01,0.00,24.9,23.4,00.0,33.1,26.5,15.1,0000.0,0005.14,0016.91,0004.05
2023-04-03 22:08:00,,0812.9,5.00,0.00,24.9,23.4,00.0,33.2,26.5,15.1,0000.0,0005.19,0017.08,0004.05
2023-04-03 22:09:00,,0813.0,5.00,0.00,24.9,23.4,00.0,33.2,26.5,15.1,0000.0,0005.27,0018.17,0004.05
2023-04-03 22:10:00,,0813.0,5.00,0.00,24.9,23.4,00.0,33.2,26.5,15.2,0000.0,0005.28,0017.89,0004.07
2023-04-03 22:11:00,,0813.0,5.00,0.00,24.9,23.4,00.0,33.2,26.5,15.3,0000.0,0005.30,0016.85,0004.08
2023-04-03 22:12:00,,0812.9,4.99,0.00,24.9,23.4,00.0,33.2,26.5,15.3,0000.0,0005.32,0016.11,0004.08
2023-04-03 22:13:00,,0813.0,5.00,0.00,24.9,23.4,00.0,33.2,26.5,15.3,0000.0,0005.28,0014.82,0004.06
2023-04-03 22:14:00,,0813.0,5.00,0.00,24.9,23.4,00.0,33.2,26.6,15.3,0000.0,0005.29,0013.39,0004.06
2023-04-03 22:15:00,,0813.0,5.01,0.00,24.9,23.4,00.0,33.2,26.6,15.3,0000.0,0005.24,0013.30,0004.05
2023-04-03 22:16:00,,0813.0,4.99,0.00,24.9,23.4,00.0,33.2,26.6,15.2,0000.0,0005.18,0014.24,0004.04
2023-04-03 22:17:00,,0813.0,5.00,0.00,25.0,23.4,00.0,33.2,26.6,15.3,0000.0,0005.16,0014.34,0004.03
2023-04-03 22:18:00,,0813.0,5.00,0.00,25.0,23.5,00.0,33.2,26.6,15.3,0000.0,0005.17,0015.59,0004.03
2023-04-03 22:19:00,,0813.0,5.00,0.00,25.0,23.5,00.0,33.3,26.6,15.3,0000.0,0005.16,0015.80,0004.05
2023-04-03 22:20:00,,0813.0,5.00,0.00,25.0,23.5,00.0,33.3,26.6,15.2,0000.0,0005.15,0015.77,0004.04
2023-04-03 22:21:00,,0812.9,5.00,0.00,25.0,23.5,00.0,33.3,26.7,15.4,0000.0,0005.14,0016.06,0004.04
2023-04-03 22:22:00,,0812.9,5.00,0.00,25.0,23.6,00.0,33.3,26.7,15.2,0000.0,0005.15,0016.65,0004.04
2023-04-03 22:23:00,,0812.8,5.00,0.00,25.0,23.6,00.0,33.3,26.7,15.2,0000.0,0005.17,0016.85,0004.05
2023-04-03 22:24:00,,0812.8,5.00,0.00,25.0,23.6,00.0,33.3,26.7,15.2,0000.0,0005.18,0017.78,0004.06
2023-04-03 22:25:00,,0812.7,5.01,0.00,25.0,23.6,00.0,33.3,26.7,15.1,0000.0,0005.21,0018.19,0004.06
2023-04-03 22:26:00,,0812.7,5.01,0.00,25.1,23.6,00.0,33.3,26.7,15.2,0000.0,0005.21,0018.71,0004.06
2023-04-03 22:27:00,,0812.7,5.00,0.00,25.1,23.6,00.0,33.4,26.7,15.2,0000.0,0005.22,0017.81,0004.06
2023-04-03 22:28:00,,0812.7,5.00,0.00,25.1,23.7,00.0,33.4,26.7,15.2,0000.0,0005.24,0017.97,0004.08
2023-04-03 22:29:00,,0812.7,4.99,0.00,25.1,23.7,00.0,33.4,26.7,15.1,0000.0,0005.28,0016.50,0004.10
2023-04-03 22:30:00,,0812.7,4.99,0.00,25.1,23.7,00.0,33.4,26.8,15.1,0000.0,0005.28,0016.29,0004.10
2023-04-03 22:31:00,,0812.7,5.00,0.00,25.1,23.7,00.0,33.4,26.8,15.1,0000.0,0005.23,0015.64,0004.11
2023-04-03 22:32:00,,0812.6,5.02,0.00,25.1,23.7,00.0,33.4,26.7,15.1,0000.0,0005.23,0015.00,0004.11
2023-04-03 22:33:00,,0812.7,5.00,0.00,25.1,23.7,00.0,33.4,26.8,15.1,0000.0,0005.25,0014.71,0004.11
2023-04-03 22:34:00,,0812.7,4.99,0.00,25.1,23.7,00.0,33.4,26.8,15.1,0000.0,0005.27,0015.92,0004.10
2023-04-03 22:35:00,,0812.6,5.00,0.00,25.1,23.7,00.0,33.4,26.8,15.0,0000.0,0005.30,0015.79,0004.10
2023-04-03 22:36:00,,0812.6,4.99,0.00,25.1,23.8,00.0,33.4,26.8,15.1,0000.0,0005.29,0016.20,0004.08
2023-04-03 22:37:00,,0812.6,4.99,0.00,25.1,23.8,00.0,33.4,26.8,15.2,0000.0,0005.28,0015.94,0004.08
2023-04-03 22:38:00,,0812.6,5.00,0.00,25.1,23.8,00.0,33.5,26.8,15.2,0000.0,0005.29,0015.37,0004.08
2023-04-03 22:39:00,,0812.6,5.00,0.00,25.2,23.8,00.0,33.5,26.8,15.1,0000.0,0005.26,0015.42,0004.07
2023-04-03 22:40:00,,0812.6,5.01,0.00,25.2,23.8,00.0,33.5,26.8,15.1,0000.0,0005.23,0015.30,0004.07
2023-04-03 22:41:00,,0812.6,5.01,0.00,25.2,23.8,00.0,33.5,26.8,15.2,0000.0,0005.22,0015.65,0004.08
2023-04-03 22:42:00,,0812.5,5.00,0.00,25.2,23.8,00.0,33.5,26.8,15.3,0000.0,0005.24,0016.36,0004.07
2023-04-03 22:43:00,,0812.5,5.00,0.00,25.2,23.8,00.0,33.5,26.8,15.1,0000.0,0005.23,0016.70,0004.08
2023-04-03 22:44:00,,0812.6,4.99,0.00,25.2,23.8,00.0,33.5,26.8,15.2,0000.0,0005.18,0017.12,0004.07
2023-04-03 22:45:00,,0812.6,4.99,0.00,25.2,23.8,00.0,33.5,26.8,15.2,0000.0,0005.16,0017.19,0004.07
2023-04-03 22:46:00,,0812.6,5.00,0.00,25.2,23.8,00.0,33.5,26.8,15.2,0000.0,0005.15,0016.48,0004.08
2023-04-03 22:47:00,,0812.5,5.00,0.00,25.2,23.8,00.0,33.5,26.8,15.2,0000.0,0005.14,0015.77,0004.08
2023-04-03 22:48:00,,0812.4,5.01,0.00,25.2,23.8,00.0,33.5,26.9,15.1,0000.0,0005.15,0014.94,0004.09
2023-04-03 22:49:00,,0812.4,5.00,0.00,25.2,23.8,00.0,33.5,26.9,15.1,0000.0,0005.17,0015.53,0004.09
2023-04-03 22:50:00,,0812.4,4.99,0.00,25.2,23.8,00.0,33.5,26.9,15.1,0000.0,0005.18,0015.54,0004.09
2023-04-03 22:51:00,,0812.4,4.99,0.00,25.2,23.8,00.0,33.5,26.8,15.1,0000.0,0005.16,0015.66,0004.08
2023-04-03 22:52:00,,0812.4,5.00,0.00,25.2,23.8,00.0,33.5,26.9,15.1,0000.0,0005.16,0016.47,0004.07
2023-04-03 22:53:00,,0812.6,5.01,0.00,25.2,23.8,00.0,33.5,26.9,15.2,0000.0,0005.17,0015.56,0004.08
2023-04-03 22:54:00,,0812.5,5.00,0.00,25.2,23.8,00.0,33.6,26.9,15.2,0000.0,0005.21,0015.77,0004.08
2023-04-03 22:55:00,,0812.5,4.99,0.00,25.2,23.8,00.0,33.6,26.9,15.2,0000.0,0005.24,0016.03,0004.07
2023-04-03 22:56:00,,0812.5,4.99,0.00,25.2,23.8,00.0,33.6,26.9,15.1,0000.0,0005.26,0015.00,0004.06
2023-04-03 22:57:00,,0812.5,5.00,0.00,25.2,23.8,00.0,33.6,26.9,15.1,0000.0,0005.28,0015.28,0004.06
2023-04-03 22:58:00,,0812.5,5.00,0.00,25.2,23.9,00.0,33.6,26.9,15.1,0000.0,0005.31,0017.56,0004.05
2023-04-03 22:59:00,,0812.5,5.02,0.00,25.2,23.8,00.0,33.6,26.9,15.1,0000.0,0005.31,0018.84,0004.05
